Other Public Products
Issued by NWS Charleston, SC

Current Version | Previous Version | Graphics & Text | Print | Product List | Glossary On
Versions: 1 2 3 4 5 6 7 8 9 10 11 12 13 14 15 16 17 18 19 20 21 22 23 24 25 26 27 28 29 30 31 32 33 34 35 36 37 38 39 40 41 42 43 44 45 46 47 48 49 50
050
FPUS82 KCHS 220127
OPUCHS

TEST...KCHS/KSAV Gateway Observations...TEST
National Weather Service Charleston SC
900 PM EDT FRI JUL 21 2017

NOTE: "fair" indicates few or no clouds below 12,000 feet with no
significant weather and/or obstructions to visibility.

SCZ050-WAZ558-NCZ071-TXZ119-213-PAZ071-DCZ001-FLZ074-172-MI076-
NYZ176-178-MAZ016-IL014-TNZ027-NJZ106-GAZ044-MD014-220200-

...Gateway Observations for Charleston International...

CITY           SKY/WX    TMP DP  RH WIND       PRES   REMARKS
Chas Airport   PTCLDY    80  74  81 S7        30.03R
Seattle        PTSUNNY   76  50  40 W8        30.12F
Charlotte      PTCLDY    87  71  58 S9        30.00R HX  93
Dallas DFW     PTCLDY    95  68  41 SE13      29.87F HX  99
Dallas Love    PTCLDY    95  66  38 SE15      29.89S HX  98
Philladelphia  CLOUDY    88  70  55 SW10      29.88R HX  93
Wash National  MOCLDY    90  76  63 S6        29.88S HX 101
Baltimore      CLOUDY    85  72  65 CALM      29.88S HX  91
Miami          CLOUDY    80  74  81 CALM      30.09R
Detroit        CLOUDY    82  70  66 SE5       29.94S
Newark         MOCLDY    88  67  49 SW6       29.84F HX  91
Laguardia      CLOUDY    89  68  49 SW10      29.84S HX  93
J F K          CLOUDY    82  72  71 S8        29.86S
Boston Logan   PTCLDY    84  59  42 W13       29.80R
Ft. Lauderdale CLOUDY    81  72  74 SE6       30.07R
Chicago O`Hare CLOUDY    79  72  79 E9        29.87F
Chicago Midway MOCLDY    81  71  71 E12       29.86F THUNDER
Houston Bush   LGT RAIN  83  76  79 S7        29.94F HX  91
Houston Hobby  CLOUDY    87  76  69 S8        29.94F HX  97
Nashville      PTCLDY    90  74  59 SW3       29.98R HX  99
Atlanta        PTCLDY    88  71  57 NW7       30.02R HX  94

$$

GAZ044-118-TXZ119-213-NCZ071-DCZ001-MDZ014-506-PAZ021-071-NJZ106-
NYZ176-178-MAZ106-OHZ011-021-055-MIZ076-KYZ091-ILZ014-INZ047-
MNZ060-ONZ431-220200-

...Gateway Observations for Savannah International...

CITY           SKY/WX    TMP DP  RH WIND       PRES   REMARKS
Savannah Arpt  PTCLDY    84  72  67 S7        30.03R
Atlanta        PTCLDY    88  71  57 NW7       30.02R HX  94
Charlotte      PTCLDY    87  71  58 S9        30.00R HX  93
Dallas DFW     PTCLDY    95  68  41 SE13      29.87F HX  99
Houston Bush   LGT RAIN  83  76  79 S7        29.94F HX  91
Wash National  MOCLDY    90  76  63 S6        29.88S HX 101
Wash Dulles    CLOUDY    84  72  67 NW5       29.90R
Baltimore      CLOUDY    85  72  65 CALM      29.88S HX  91
Philadelphia   CLOUDY    88  70  55 SW10      29.88R HX  93
Newark         MOCLDY    88  67  49 SW6       29.84F HX  91
Laguardia      CLOUDY    89  68  49 SW10      29.84S HX  93
J F K          CLOUDY    82  72  71 S8        29.86S
Boston         PTCLDY    84  59  42 W13       29.80R
Pittsburg      CLOUDY    80  76  87 SW12      29.97R
Akron          PTCLDY    80  68  66 N5        29.97R
Cleveland      PTCLDY    81  69  67 NE6       29.97S
Cincinnati     CLOUDY    78  72  81 SE10      29.98R
Columbus       CLOUDY    77  74  89 CALM      29.95F
Detroit        CLOUDY    82  70  66 SE5       29.94S
Chicago O`Hare CLOUDY    79  72  79 E9        29.87F
Minneapolis    MOCLDY    80  67  64 SE7       29.81R
Indianapolis   MOCLDY    84  74  71 SE8       29.91F HX  91
Toronto Canada PTCLDY    77  59  53 N7        29.92S

$$




USA.gov is the U.S. government's official web portal to all federal, state and local government web resources and services.